Location: Bouchavesnes-Bergen
(49.9859°N, 2.9203°E)
Time: 00:24:13
(UTC+00:00)

Envisat - Pass Details

Date: 09 February 2023
Orbit: 763 x 765 km, 98.2° (Epoch: 28 March)

Event Time Altitude Azimuth Distance (km) Brightness Sun altitude
Rises 03:37:12 0° 17° (NNE) 3,245 6.7 -34.3°
Reaches altitude 10° 03:39:35 10° 23° (NNE) 2,314 5.9 -33.9°
Enters shadow 03:42:59 38° 49° (NE) 1,162 4.2 -33.4°
